OBJECT H, 68799

Orbit data source: Space-Track

You're viewing an Uncataloged Satellite

Recently launched and/or uncataloged satellites may have evolving metadata. Metadata may include but not limited to: Owner, Maufacturer, Bus, Motor, and Mission.

OBJECT H, 68799 is a Japanese satellite in SSO that was launched on Thu, 23 Apr 2026 UTC via an ELECTRON launch vehicle from the Rocket Lab Launch Complex (RLLC). Unknown objects in Earth's orbit typically refer to objects detected orbiting the Earth but have not yet been identified or cataloged. These objects could be anything from previously untracked satellites, spent rocket stages, debris from satellite collisions, or even natural meteoroids temporarily captured by Earth's gravity.

Loading next visibility...
Identifier
68799, 2026-088H
Orbit
SSO
Country
Flag of JPJP / JPN
Related business
None
Manufacturer
Unknown
Mission
Operational spacecraft
Bus & Motor
Unknown
Mass
Unknown
Launch date (UTC)
2026-04-23 (2 months ago)
Launch vehicle
ELECTRON
Launch site
Rocket Lab Launch Complex (RLLC)
Object type
Unknown
Shape & HBR
Unknown shape, 1.1 m
Radar Cross Section
Medium (>0.1 m² and <1 m²)

Expand to show TLE details & history
Last TLE update: 14 hours ago

TLE from 14 hours ago
0 OBJECT H
1 68799U 26088H   26171.39650764  .00002740  00000-0  17731-3 0  9995
2 68799  97.5060 320.7367 0020566  72.1566 288.1904 15.08830299  8782
Epoch: 2026-06-20T09:30Z
TLE epoch observation values (Epoch: 2026-06-20T09:30:58.260Z)
Latitude
0.00001°
Longitude
-90.61778°
Altitude
538.429 km
Speed
7.596 km/s
True Right ascension
21h 22m 56s
True Declination
0° 00' 00"
Sunlit
Object was in full shadow at epoch
Visualization orbit readout
Latitude
Unknown
Longitude
Unknown
Altitude
Unknown
Speed
Unknown
Apparent Right ascension
Unknown
Apparent Declination
Unknown
Sunlit
N/A
Visualization observer readout
Local Sidereal Time
10:18:54
Azimuth
Unknown
Elevation
Unknown
Doppler factor
Unknown
Orbital elements
Apogee altitude
550.979 km
Perigee altitude
522.537 km
Semi-major axis
6,914.895 km
Eccentricity
0.00206
Inclination
97.506°
RAAN
320.7367°
Arg. of periapsis
72.1566°
True anomaly
287.96633°
Mean anomaly
288.1904°
Eccentric anomaly
288.07838°
Mean motion
3.77455 °/min
Orbital period
95.38 mins
BSTAR
0.00017731
Loading maneuver chart data...
Computing Atmospheric mass density...
Loading historical data...
Loading historical data...
Loading historical data...
Loading historical data...
Loading historical data...
Loading historical data...
Loading historical data...

Documentation

Showing up to 5 results
|